BEIDOU-3 IGSO-2

Last updated on Tue Sep 15 2026 00:03:12 GMT+0000 (Coordinated Universal Time)

1 44337U 19035A 26257.49625731 -.00000136 00000+0 00000+0 0 9997 2 44337 55.2506 158.0785 0038748 211.3808 282.4523 1.00272753 26565
UTC large
Height (km)
Speed (km/s)
/
Latitude / Longitude
Inclination (degrees)
Orbital Period (minutes)
Azimuth
Elevation
Range (km)
Doppler Factor

Next 0 passes for location: London (51.5072 / 0.1276)

No passes found over London.
BEIDOU-3 IGSO-2